Location: Colle Pacifico
(43.5333°N, 13.3167°E)
Time: 18:29:25
(UTC+00:00)

NOSS 2-1 (D) - Pass Details

Date: 07 June 2020
Orbit: 449 x 1754 km, 63.3° (Epoch: 25 June)

Event Time Altitude Azimuth Distance (km) Brightness Sun altitude
Exits shadow 01:16:56 37° 254° (WSW) 711 3.5 -17.2°
Maximum altitude 01:17:57 55° 310° (NW) 553 3.3 -17.1°
Drops below altitude 10° 01:21:27 10° 29° (NNE) 1,667 7.1 -16.7°
Sets 01:23:45 0° 34° (NE) 2,649 8.7 -16.5°
